Vorticity
16 8 -6 6 -6 23 29 -19 0 -11 11 -20 13 4 -3 8 6 2 4 4 5 6 6 7 6 6 7 7 7 6 5 6 6 6 5 4 5 4 4 5 6 6 6 6 7 6 6 6 7
11 14 -16 22 6 15 -7 6 6 4 5 7 7 5 7 6 5 6 6 7 7 7 7 8 9 8 8 8 8 7 7 7 7 6 7 6 5 6 6 6 3 5 6 6 5 5 7 6 6
5 7 8 3 1 -3 6 9 3 8 7 4 9 6 5 5 5 3 10 2 8 5 8 7 8 8 7 8 7 8 8 9 7 7 6 8 7 5 5 5 4 4 3 5 5 3 5 6 6
2 19 27 -0 4 3 13 4 6 10 6 4 7 7 5 5 3 6 10 1 6 5 8 7 8 8 9 7 6 6 7 7 8 7 6 3 8 7 6 6 6 3 3 9 7 6 6 7 5
4 11 54 -23 -18 11 5 6 23 2 4 4 8 2 6 1 7 5 5 4 7 8 7 8 8 7 6 8 7 6 11 6 5 6 7 24 7 7 7 6 5 6 2 8 7 9 7 7 5
5 3 4 0 19 14 4 37 -10 9 5 -8 7 7 3 6 6 7 5 7 8 7 7 7 9 6 5 4 8 5 5 6 5 5 4 19 4 9 3 7 10 12 12 6 9 8 8 8 5
4 13 -16 3 25 -13 3 -5 -11 1 5 5 4 8 1 7 7 3 8 6 5 7 7 6 9 5 6 10 13 31 19 11 3 5 8 5 8 23 7 8 8 8 8 9 9 8 8 8 6
3 -4 3 9 8 45 12 5 3 2 4 6 6 10 1 8 5 6 10 9 6 19 -4 10 6 5 6 5 9 4 11 14 19 19 21 9 1 8 8 7 7 8 7 5 8 6 9 7 5
4 1 2 1 -6 5 42 8 0 -2 5 5 5 7 5 6 5 9 6 10 7 12 3 8 8 4 7 10 10 5 15 20 13 22 6 9 7 8 8 7 9 8 3 6 7 7 8 8 4
3 2 1 -12 5 -6 16 6 7 21 2 12 6 8 7 5 5 7 7 7 8 8 4 12 6 14 10 9 5 10 14 16 16 3 13 7 9 7 7 7 13 3 6 1 7 7 7 9 6
4 2 1 2 5 -5 19 6 3 -1 5 8 4 6 7 6 7 4 8 5 7 8 4 13 3 1 10 8 12 7 28 10 18 -6 23 9 9 8 7 7 5 6 6 8 6 8 8 7 8
14 2 3 1 4 6 35 -14 -8 -7 -2 2 7 5 7 6 7 9 9 6 7 6 6 11 9 8 13 8 -5 12 17 11 4 14 6 8 9 4 4 7 5 8 11 10 9 13 39 8 6
18 2 7 7 6 11 43 -0 1 4 4 11 5 5 6 6 4 7 7 10 7 6 6 8 8 4 13 12 9 8 4 0 17 -7 13 4 3 6 6 8 4 0 8 8 7 9 9 9 9
5 -4 8 -3 5 15 10 34 4 5 8 -3 4 4 5 6 7 6 6 9 6 6 7 3 6 9 4 9 10 11 9 7 6 6 4 5 6 7 8 5 18 17 5 16 14 15 11 9 5
2 6 9 7 6 3 44 0 2 3 18 3 4 4 3 7 4 5 6 6 8 9 5 8 5 8 7 6 10 12 12 9 8 5 9 8 10 7 10 6 8 5 10 12 16 15 11 8 6
15 6 3 -0 1 0 19 2 5 -2 -9 4 5 3 4 8 4 4 4 5 7 8 7 8 4 6 7 11 6 7 11 9 10 9 8 8 8 9 6 11 5 6 5 9 16 14 10 6 3
-2 5 3 48 -5 24 -11 6 3 6 4 4 4 5 4 7 4 4 5 5 6 9 10 5 6 4 9 6 7 6 6 7 8 7 7 7 6 5 7 9 6 5 4 4 5 15 11 8 5
21 14 -9 1 -2 53 -1 7 9 2 7 2 5 5 5 7 5 3 5 3 6 6 10 6 7 6 7 8 7 7 8 7 7 6 6 5 4 5 4 7 6 11 9 10 6 5 13 9 7
5 4 1 -2 22 27 20 5 4 2 7 3 5 6 6 6 4 7 4 5 6 6 8 10 5 8 5 5 8 6 7 6 5 6 4 5 5 6 10 2 -1 9 3 13 11 7 6 6 5
-3 14 -18 22 -5 27 20 6 -13 9 -6 9 7 8 5 4 5 4 4 5 5 5 7 6 9 6 9 6 6 9 5 7 6 9 6 6 7 7 10 6 -13 9 10 -6 11 13 9 9 8
2 7 15 13 -18 -9 21 34 -4 6 0 -4 0 19 4 5 4 4 6 5 4 5 5 7 7 10 4 9 7 7 10 4 4 7 6 4 5 7 11 2 15 8 7 8 6 7 12 7 14
8 0 1 8 0 13 -2 32 49 21 5 2 -9 1 9 6 3 4 5 5 3 4 5 5 6 9 9 6 10 5 6 8 8 6 6 4 3 2 8 6 8 -2 8 8 8 8 8 10 5
-7 -3 -5 27 -3 35 -2 23 10 41 -0 21 17 -3 9 7 22 0 3 5 4 5 6 5 5 6 8 7 8 7 6 7 6 7 7 8 6 8 6 9 7 11 6 6 7 11 8 7 7
-14 -5 8 10 -2 -1 -3 27 27 30 27 21 6 4 23 15 -7 -0 4 7 4 5 7 6 5 6 6 7 8 9 7 5 7 6 5 7 7 6 5 6 7 5 4 5 6 8 8 8 18
-14 3 25 30 10 -11 3 6 -14 22 25 12 55 30 2 25 4 -1 4 4 4 3 5 5 6 7 6 7 7 6 14 12 9 8 7 7 7 6 5 6 7 7 7 5 6 8 8 8 12
-21 -3 -37 5 54 -20 -15 13 7 13 50 36 23 21 -19 -9 10 -11 28 2 3 3 2 6 4 5 6 7 2 7 9 6 7 5 7 10 7 7 7 7 9 7 6 6 5 8 8 7 7
14 24 31 13 -9 17 -5 27 16 6 12 -1 50 6 11 16 14 14 -4 23 -6 -2 -15 4 5 6 3 5 7 11 7 5 8 9 8 22 4 9 7 7 6 8 7 6 5 4 7 7 7
-7 -11 11 14 6 -2 -27 -24 60 2 13 -4 24 32 16 8 -1 16 4 -0 14 15 6 11 4 6 6 4 4 5 8 3 4 5 7 8 7 8 17 7 7 6 7 6 5 5 5 5 7
14 -7 -12 -5 21 9 10 2 3 1 49 4 7 18 12 52 10 1 19 5 -2 13 15 19 2 5 7 3 5 3 2 4 6 10 8 7 7 9 -3 8 7 7 8 7 6 6 6 6 6
39 18 -8 -1 -4 4 -5 14 7 6 9 56 6 4 8 1 56 1 19 16 -10 15 -16 -10 10 7 10 5 5 5 4 3 4 3 4 7 8 9 8 6 9 8 6 6 5 5 5 5 5
Height
5890 5891 5888 5889 5895 5890 5889 5892 5890 5887 5887 5888 5889 5889 5891 5890 5892 5893 5893 5893 5892 5892 5892 5892 5893 5893 5894 5894 5896 5897 5897 5898 5898 5899 5899 5900 5901 5902 5903 5904 5904 5904 5905 5905 5907 5908 5908 5907 5910
5892 5891 5889 5892 5892 5891 5892 5892 5889 5890 5889 5890 5891 5891 5891 5892 5894 5894 5895 5896 5895 5894 5893 5894 5894 5895 5895 5895 5895 5896 5897 5898 5898 5899 5900 5901 5903 5904 5906 5907 5907 5907 5906 5908 5908 5909 5910 5909 5911
5892 5890 5888 5891 5890 5891 5893 5893 5892 5893 5891 5893 5896 5894 5894 5896 5896 5895 5896 5896 5895 5895 5894 5894 5895 5895 5895 5895 5896 5897 5897 5898 5899 5900 5901 5902 5903 5904 5907 5908 5909 5909 5909 5910 5911 5911 5912 5911 5913
5893 5886 5875 5887 5891 5892 5895 5894 5891 5895 5895 5893 5895 5896 5898 5897 5896 5897 5897 5897 5899 5898 5897 5897 5897 5897 5897 5897 5897 5898 5899 5900 5901 5903 5903 5905 5906 5906 5906 5908 5909 5910 5911 5912 5912 5912 5913 5914 5915
5895 5879 5881 5884 5890 5894 5895 5895 5893 5893 5894 5896 5897 5896 5898 5897 5898 5899 5900 5899 5900 5900 5899 5899 5899 5897 5897 5898 5898 5898 5898 5899 5901 5902 5903 5905 5907 5908 5908 5909 5910 5912 5913 5914 5914 5914 5916 5918 5917
5896 5896 5881 5890 5893 5896 5895 5894 5894 5896 5896 5897 5899 5899 5899 5899 5900 5901 5902 5900 5901 5901 5899 5900 5900 5898 5898 5897 5897 5896 5896 5897 5898 5900 5901 5902 5905 5907 5910 5912 5913 5913 5915 5916 5917 5918 5918 5919 5921
5896 5895 5888 5895 5896 5895 5895 5897 5897 5898 5898 5898 5898 5901 5899 5900 5903 5903 5904 5902 5900 5898 5898 5900 5900 5901 5899 5899 5898 5897 5896 5897 5899 5900 5903 5905 5907 5907 5910 5914 5916 5916 5916 5918 5919 5920 5921 5922 5924
5896 5896 5895 5897 5896 5895 5901 5897 5896 5899 5899 5900 5900 5902 5901 5903 5902 5902 5903 5901 5900 5903 5902 5901 5902 5903 5902 5902 5901 5899 5898 5898 5898 5899 5902 5904 5908 5910 5913 5915 5918 5918 5920 5921 5922 5923 5925 5925 5926
5896 5897 5894 5888 5893 5897 5896 5896 5895 5897 5898 5900 5902 5904 5903 5905 5904 5906 5905 5904 5905 5903 5905 5902 5903 5905 5905 5903 5901 5900 5899 5899 5899 5901 5905 5908 5910 5913 5915 5916 5919 5920 5921 5924 5924 5924 5925 5927 5929
5895 5895 5894 5891 5891 5895 5897 5897 5897 5899 5900 5900 5903 5907 5904 5904 5906 5908 5906 5904 5905 5903 5904 5904 5906 5908 5906 5905 5903 5900 5898 5901 5904 5905 5906 5909 5912 5914 5917 5918 5919 5921 5921 5922 5923 5926 5928 5928 5931
5893 5894 5894 5895 5892 5892 5898 5896 5896 5902 5901 5903 5905 5906 5908 5908 5907 5906 5906 5906 5906 5905 5905 5908 5909 5909 5907 5907 5906 5902 5903 5905 5907 5909 5910 5912 5914 5913 5917 5918 5919 5922 5925 5924 5924 5927 5931 5933 5932
5891 5891 5892 5895 5894 5893 5894 5899 5896 5897 5902 5903 5906 5907 5909 5909 5912 5912 5912 5910 5911 5908 5908 5910 5911 5912 5911 5908 5904 5905 5908 5910 5911 5912 5914 5916 5916 5915 5919 5920 5922 5923 5925 5925 5928 5932 5932 5936 5935
5886 5890 5892 5893 5893 5892 5888 5890 5895 5896 5901 5904 5907 5909 5910 5911 5911 5911 5911 5912 5912 5911 5911 5912 5912 5914 5916 5914 5911 5910 5912 5913 5914 5916 5919 5919 5918 5923 5922 5925 5924 5924 5926 5925 5928 5931 5935 5938 5939
5885 5889 5891 5894 5892 5889 5891 5888 5892 5899 5903 5907 5906 5909 5911 5912 5913 5916 5915 5916 5914 5914 5914 5913 5914 5915 5918 5918 5916 5915 5917 5918 5917 5919 5921 5922 5921 5924 5925 5927 5927 5928 5930 5928 5928 5931 5934 5937 5941
5885 5886 5888 5891 5890 5889 5891 5886 5892 5901 5901 5905 5906 5910 5911 5912 5913 5918 5919 5917 5916 5917 5917 5918 5916 5916 5919 5918 5919 5920 5919 5919 5922 5923 5924 5923 5922 5924 5927 5929 5930 5929 5929 5929 5931 5932 5936 5939 5943
5877 5880 5883 5885 5888 5889 5892 5889 5896 5901 5902 5905 5907 5909 5912 5913 5915 5917 5917 5919 5919 5920 5922 5922 5920 5919 5920 5922 5921 5922 5925 5925 5926 5926 5924 5926 5927 5929 5931 5932 5933 5935 5935 5936 5934 5936 5939 5942 5944
5869 5875 5878 5878 5884 5886 5889 5890 5892 5897 5900 5904 5905 5909 5911 5914 5916 5919 5920 5921 5921 5922 5923 5924 5924 5924 5924 5924 5926 5926 5928 5928 5929 5929 5930 5932 5933 5934 5936 5940 5940 5940 5939 5940 5937 5939 5941 5943 5944
5869 5874 5876 5877 5880 5881 5884 5889 5891 5892 5896 5901 5903 5907 5911 5914 5916 5919 5922 5922 5923 5923 5924 5925 5927 5929 5927 5928 5928 5930 5932 5932 5933 5933 5933 5935 5937 5939 5941 5943 5944 5945 5944 5944 5943 5943 5945 5947 5949
5871 5874 5872 5873 5874 5877 5878 5884 5887 5891 5895 5897 5899 5903 5909 5911 5915 5918 5922 5923 5925 5926 5926 5928 5929 5930 5931 5932 5933 5934 5934 5935 5936 5937 5937 5939 5942 5944 5946 5946 5946 5947 5947 5948 5949 5949 5950 5953 5952
5870 5870 5872 5871 5872 5873 5875 5880 5885 5888 5892 5895 5897 5900 5905 5909 5913 5918 5921 5924 5925 5926 5928 5929 5931 5932 5933 5934 5935 5936 5936 5938 5939 5940 5941 5944 5945 5947 5948 5947 5949 5950 5950 5952 5954 5952 5951 5955 5955
5863 5866 5869 5871 5872 5871 5873 5875 5878 5884 5887 5892 5893 5897 5901 5907 5910 5916 5921 5924 5925 5926 5928 5930 5932 5934 5936 5938 5937 5939 5941 5942 5942 5942 5943 5946 5949 5950 5949 5948 5950 5951 5951 5951 5957 5954 5952 5956 5958
5858 5864 5864 5864 5871 5869 5870 5871 5872 5878 5884 5887 5890 5894 5898 5904 5908 5912 5919 5921 5923 5926 5927 5930 5932 5936 5937 5939 5941 5942 5944 5946 5945 5943 5945 5946 5950 5951 5951 5950 5950 5952 5953 5954 5956 5957 5957 5959 5959
5856 5860 5861 5863 5869 5868 5868 5869 5871 5873 5876 5883 5886 5890 5897 5903 5906 5910 5917 5919 5922 5926 5927 5928 5931 5935 5938 5939 5942 5943 5944 5946 5947 5946 5947 5947 5948 5952 5952 5953 5952 5952 5954 5955 5954 5957 5959 5960 5959
5852 5858 5860 5861 5868 5869 5867 5867 5865 5867 5872 5879 5882 5888 5895 5899 5904 5906 5913 5918 5920 5923 5927 5928 5930 5934 5937 5940 5943 5944 5945 5946 5947 5947 5949 5949 5949 5951 5953 5954 5955 5954 5951 5951 5954 5958 5959 5960 5962
5855 5858 5859 5860 5863 5861 5863 5865 5865 5865 5868 5871 5875 5884 5890 5897 5902 5905 5911 5917 5920 5921 5924 5928 5930 5932 5935 5939 5942 5943 5945 5947 5948 5948 5949 5951 5951 5952 5953 5954 5954 5954 5953 5953 5955 5959 5959 5960 5960
5853 5855 5855 5857 5860 5863 5864 5863 5864 5863 5865 5865 5871 5879 5887 5893 5899 5904 5907 5913 5917 5920 5921 5925 5929 5931 5932 5937 5941 5942 5944 5946 5946 5948 5951 5953 5952 5953 5955 5956 5956 5957 5957 5956 5955 5958 5961 5961 5961
5854 5853 5856 5856 5858 5864 5863 5859 5860 5861 5862 5865 5868 5875 5884 5890 5897 5900 5905 5909 5915 5916 5917 5922 5925 5929 5931 5934 5939 5941 5943 5944 5946 5948 5951 5951 5950 5952 5954 5956 5957 5957 5957 5958 5956 5957 5959 5960 5962
5849 5853 5855 5855 5859 5862 5860 5856 5859 5860 5860 5863 5868 5873 5879 5884 5891 5894 5903 5907 5910 5912 5915 5920 5924 5926 5929 5931 5935 5938 5940 5943 5944 5947 5949 5948 5949 5950 5953 5955 5956 5957 5956 5956 5955 5955 5956 5956 5957
5847 5851 5853 5856 5857 5859 5860 5859 5861 5862 5863 5862 5866 5867 5876 5881 5888 5892 5897 5902 5907 5909 5915 5918 5920 5922 5926 5927 5931 5933 5936 5940 5941 5944 5946 5947 5947 5948 5951 5953 5954 5954 5954 5954 5953 5952 5954 5956 5958
5843 5847 5851 5853 5857 5858 5859 5860 5864 5863 5864 5862 5865 5868 5873 5879 5882 5887 5893 5898 5903 5908 5913 5914 5917 5919 5921 5923 5926 5928 5932 5935 5938 5940 5941 5944 5946 5948 5948 5950 5951 5952 5952 5953 5951 5950 5951 5953 5953